STARLINK-2524, 48304

Orbit data source: Space-Track

STARLINK-2524, 48304 is a payload satellite owned by SpaceX/Seattle (US) in LEO that was launched on Thu, 29 Apr 2021 UTC via an FALCON 9 launch vehicle from the Air Force Eastern Test Range (AFETR). Payloads include a variety of satellites, spacecraft, and rockets equipped with specific instruments for various scientific and technological missions. These include communications satellites like Starlink; space stations such as the ISS; scientific satellites like the Hubble; Earth observation satellites from companies like Planet Labs, Umbra, and HawkEye 360; GPS; miniature CubeSats for education and research; and military/defense satellites.

Loading next visibility...
STARLINK-2524 details
Identifier
48304, 2021-036AE
Orbit
LEO
Last TLE update10 hours ago
Origin
Flag of USSpaceX/Seattle (US)
ManufacturerSpaceX/Seattle
MissionOperational Commercial Communications
Bus & MotorSTARLINK, Unknown motor
Mass260 kg wet, ~248 kg dry
Launch date (UTC)
2021-04-29 (4 years ago)
Launch vehicle
FALCON 9
Launch site
Air Force Eastern Test Range (AFETR)
Object type
Payload
Rocket body
Debris
Shape & HBRBox + 1 Pan, 8.86 m
Radar Cross Section13.562 m², Large (>1 m²)

Expand to show TLE details & history

TLE from 10 hours ago
0 STARLINK-2524
1 48304U 21036AE  25036.09855051  .00000138  00000-0  28165-4 0  9998
2 48304  53.0562  76.4724 0001481  88.1503 271.9656 15.06390588208833
Epoch: 2025-02-05T02:21Z
Definitive object data (Epoch: 2025-02-05T02:21:54.764Z)
Latitude0.00003°
Longitude-94.50012°
Altitude548.085 km
Speed7.589 km/s
True Right ascension05h 05m 53s
True Declination0° 00' 00"
Sunlit
Object was in full shadow at TLE epoch
Visualization TLE readout
Latitude-3.81921°
Longitude-99.14548°
Altitude548.765 km
Speed7.588 km/s
Apparent Right ascension03h 37m 20s
Apparent Declination-22° 19' 42"
Sunlit
Object is in daylight
Visualization observer readout
Local Sidereal Time13:56:57
Azimuth302.105° NW
Elevation-62.411°
Doppler factor1
Orbital elements
Apogee altitude548.537 km
Perigee altitude546.485 km
Semi-major axis6,925.648 km
Eccentricity0.0001481
Inclination53.0562°
RAAN76.4724°
Arg. of periapsis88.1503°
True anomaly271.94864°
Mean anomaly271.9656°
Eccentric anomaly271.95712°
Mean motion3.76576 °/min
BSTAR0.000028165
Orbital period95.6 mins
Loading maneuver chart data...
Loading historical data...
Loading historical data...
Loading historical data...
Loading historical data...
Loading historical data...
Loading historical data...
Loading historical data...

STARLINK-2524 Visibility forecast

Observer location: undefined°, undefined

Span
Click to sort rows by Start time (UTC) header in descending order
Start Az.
Max El. time (UTC)
Max El. Az.
Max El.
End time (UTC)
End Az.
7 mins2025-02-05 12:25:53.424Z305.838° NW2025-02-05 12:28:53.424Z254.752° W43.739°2025-02-05 12:32:53.424Z137.187° SSE
4 mins2025-02-06 04:00:53.424Z151.298° SSE2025-02-06 04:01:53.424Z131.645° SE19.084°2025-02-06 04:04:53.424Z81.956° E
6 mins2025-02-06 05:38:53.424Z252.765° W2025-02-06 05:40:53.424Z299.346° NW38.734°2025-02-06 05:44:53.424Z42.106° NE
4 mins2025-02-06 07:19:53.424Z315.858° NNW2025-02-06 07:21:53.424Z350.802° N16.182°2025-02-06 07:23:53.424Z21.82° NNE
5 mins2025-02-06 10:40:53.424Z341.058° N2025-02-06 10:42:53.424Z22.577° NE24.591°2025-02-06 10:45:53.424Z80.428° E
|